Regional Weather Roundup
Issued by NWS Sioux Falls, SD

Home | Current Version | Previous Version | Text Only | Print | Product List | Glossary On
Versions: 1 2 3 4 5 6 7 8 9 10 11 12 13 14 15 16 17 18 19 20 21 22 23 24 25 26 27 28 29 30 31 32 33 34 35 36 37 38 39 40 41 42 43 44 45 46 47 48 49 50
000
ASUS43 KFSD 191202
RWRFSD

WEATHER ROUNDUP FOR SE SOUTH DAKOTA/SW MINNESOTA/NW IOWA
NATIONAL WEATHER SERVICE SIOUX FALLS SD
700 AM CDT SUN APR 19 2015

NOTE: "FAIR" INDICATES FEW OR NO CLOUDS BELOW 12,000 FEET WITH NO
SIGNIFICANT WEATHER AND OR OBSTRUCTIONS TO VISIBILITY.


SDZ038>040-050-052>070-191300-
SOUTHEAST SOUTH DAKOTA

CITY           SKY/WX    TMP DP  RH WIND       PRES   REMARKS
BROOKINGS      CLOUDY    52  48  87 NW20      29.74R
CHAMBERLAIN    NOT AVBL
HURON          CLOUDY    46  43  89 NW25G33   29.80R
6HR MIN TEMP:  46; 6HR MAX TEMP:  54; 6HR PCP: TRACE;

MADISON        CLOUDY    48  48 100 NW18G25   29.75R
MITCHELL       CLOUDY    50  47  89 NW17      29.82R
6HR MIN TEMP:  50; 6HR MAX TEMP:  56; 6HR PCP:  0.01;

SIOUX FALLS    CLOUDY    51  49  92 NW15      29.74R
6HR MIN TEMP:  51; 6HR MAX TEMP:  57;

WINNER         CLOUDY    46  39  76 NW20G25   29.93R
YANKTON        CLOUDY    48  46  93 NW23      29.78R
$$

MNZ071-072-080-081-089-090-097-098-191300-
SOUTHWEST MINNESOTA

CITY           SKY/WX    TMP DP  RH WIND       PRES   REMARKS
FAIRMONT       CLOUDY    54  45  71 S6        29.72S
JACKSON        FOG       54  52  94 S7        29.73R VSB 1/4
LUVERNE        CLOUDY    54  52  94 NW14G20   29.72S FOG
MARSHALL       CLOUDY    55  48  76 W17       29.69R
6HR MIN TEMP:  55; 6HR MAX TEMP:  55; 6HR PCP:  0.06;

MONTEVIDEO     CLOUDY    54  54 100 NW10      29.69R FOG
PIPESTONE      CLOUDY    52  52 100 W13       29.72R FOG
REDWOOD FALLS  CLOUDY    55  54  96 S9        29.68S FOG
TRACY          CLOUDY    56  55  94 SW9       29.70R FOG
WORTHINGTON    CLOUDY    54  52  94 SW8       29.72R
$$

IAZ001>003-012>014-020>022-031-032-NEZ013-014-SDZ071-191300-
NORTHWEST IOWA

CITY           SKY/WX    TMP DP  RH WIND       PRES   REMARKS
DENISON        FOG       54  54 100 S5        29.71S VSB 1/4
ESTHERVILLE    FOG       52  52 100 SW6       29.72S VSB 1/2
SIOUX CITY     CLOUDY    55  53  93 NW15      29.73S FOG
6HR MIN TEMP:  54; 6HR MAX TEMP:  55;

SPENCER        CLOUDY    53  52  96 SW5       29.73S
6HR MIN TEMP:  52; 6HR MAX TEMP:  54; 6HR PCP:  0.02;

$$

ABBREVIATIONS USED IN REMARKS
   TC - TEMPERATURE IN CELSIUS
  WCI - WIND CHILL INDEX
   HX - HEAT INDEX
  VSB - VISIBILITY



USA.gov is the U.S. government's official web portal to all federal, state and local government web resources and services.